Regional Weather Roundup
Issued by NWS

Home | Current Version | Previous Version | Text Only | Print | Product List | Glossary On
Versions: 1 2 3 4 5 6 7 8 9 10 11 12 13 14 15 16 17 18 19 20 21 22 23 24 25 26 27
000
ASUS44 KLIX 050511
RWRLA
LOUISIANA WEATHER ROUNDUP
NATIONAL WEATHER SERVICE NEW ORLEANS LA
1200 AM CDT THU MAY 05 2016

NOTE: "FAIR" INDICATES FEW OR NO CLOUDS BELOW 12,000 FEET WITH NO
      SIGNIFICANT WEATHER AND/OR OBSTRUCTIONS TO VISIBILITY.
      SKY/WX - SKY CONDITION AND SIGNIFICANT WEATHER.
      TMP - AIR TEMPERATURE.    DP   - DEWPOINT TEMPERATURE.
      RH  - RELATIVE HUMIDITY.  PRES - PRESSURE.
      HX  - HEAT INDEX.         WCI  - WIND CHILL INDEX.

*  THESE STATIONS ARE NOT NWS OR FAA STATIONS AND ARE NOT UNDER
   NWS QUALITY CONTROL.

LAZ040-048-061>063-065-066-069-050600-
SOUTHEAST LOUISIANA

CITY           SKY/WX    TMP DP  RH WIND       PRES   REMARKS
N.O. AUDUBON     N/A     67  55  66 MISG        N/A
N.O. INTL ARPT CLEAR     65  53  65 W7        29.90F
N.O. LAKEFRONT CLEAR     70  59  68 W14       29.90F
N.O. DOWNTOWN* FAIR      70  52  52 S3        29.91S
RESERVE*       FAIR      64  58  82 CALM      29.91S
SLIDELL        CLEAR     61  55  81 CALM      29.88F
BATON ROUGE    PTCLDY    63  54  72 W5        29.90F
BOOTHVILLE     CLEAR     65  58  78 W5        29.91F
BELLE CHASSE   CLEAR     58  56  93 W3        29.90F
BOGALUSA*      FAIR      63  52  68 W5        29.90S
GALLIANO*      CLEAR     59  57  93 CALM      29.92S
NEW ROADS*     FAIR      61  56  83 CALM      29.91S
GONZALES*      FAIR      62  54  73 W3        29.90F
HAMMOND*       PTCLDY    63  52  67 CALM      29.89F
HOUMA*           N/A     59  56  91 CALM      29.92S
PORT FOURCHON* CLEAR     72  57  60 W8        29.93S

$$

LAZ041-044-053-054-050600-
SOUTHWEST LOUISIANA

CITY           SKY/WX    TMP DP  RH WIND       PRES   REMARKS
LAKE CHARLES   PTCLDY    67  57  70 W3        29.94S
LAFAYETTE      CLEAR     66  56  70 W5        29.92S
PATTERSON      NOT AVBL
SALT POINT       N/A     72  62  71 VRB5      29.92S
NEW IBERIA     CLEAR     62  57  83 SW5       29.93S
CHENAULT AIRPK PTCLDY    66  58  73 W3        29.94S

$$

LAZ027-028-050600-
CENTRAL LOUISIANA

CITY           SKY/WX    TMP DP  RH WIND       PRES   REMARKS
FORT POLK      CLEAR     64  56  74 W7        29.93R
ALEXANDRIA INT CLEAR     63  57  81 CALM      29.90S
ALEXANDRIA     CLEAR     60  56  86 CALM      29.91S

$$

LAZ001-002-050600-
NORTHWEST LOUISIANA

CITY           SKY/WX    TMP DP  RH WIND       PRES   REMARKS
SHREVEPORT     CLEAR     69  54  58 NW8       29.94R
BARKSDALE AFB  CLEAR     64  55  72 N3        29.93R
DTN SHREVEPORT CLEAR     69  55  60 N6        29.94R

$$

LAZ014-016-050600-
NORTHEAST LOUISIANA

CITY           SKY/WX    TMP DP  RH WIND       PRES   REMARKS
MONROE         PTCLDY    68  55  63 NW7       29.90R
TALLULAH       PTCLDY    68  54  60 N9        29.88R

$$





USA.gov is the U.S. government's official web portal to all federal, state and local government web resources and services.